Location: ????????
(56.1167°N, 38.6333°E)
Time: 10:45:51
(UTC+00:00)

Cosmos 1346 Rocket - Pass Details

Date: 17 February 2026
Orbit: 476 x 485 km, 81.2° (Epoch: 11 March)

Event Time Altitude Azimuth Distance (km) Brightness Sun altitude
Rises 03:27:25 0° 339° (NNW) 2,569 6.0 -11.6°
Reaches altitude 10° 03:29:38 10° 331° (NNW) 1,684 5.0 -11.3°
Maximum altitude 03:33:00 34° 265° (W) 817 3.2 -10.8°
Drops below altitude 10° 03:36:21 10° 199° (SSW) 1,674 5.2 -10.4°
Sets 03:38:34 0° 190° (S) 2,551 6.2 -10.1°
